This is the latest recevied weather packets stored in our database for station/object KI5UTS-13. If no packets are shown the sender has not sent any weather packets the latest 10 day(s).
| Time | Temp. | Humidity | Pressure | Rain* | Wind** | Luminosity | Snow |
|---|---|---|---|---|---|---|---|
| 1788486508 | 30° C | 77% | 1015.4 hPa | 0 mm | - | 0 W/m² | - |
| 1788486203 | 30° C | 77% | 1015.6 hPa | 0 mm | - | 0 W/m² | - |
| 1788485899 | 30° C | 77% | 1015.3 hPa | 0 mm | - | 0 W/m² | - |
| 1788485594 | 30° C | 77% | 1015.6 hPa | 0 mm | - | 0 W/m² | - |
| 1788485285 | 30° C | 77% | 1015.6 hPa | 0 mm | - | 0 W/m² | - |
| 1788484980 | 30° C | 76% | 1015.6 hPa | 0 mm | - | 0 W/m² | - |
| 1788484678 | 30° C | 77% | 1015.7 hPa | 0 mm | - | 0 W/m² | - |
| 1788484373 | 30° C | 76% | 1015.7 hPa | 0 mm | - | 0 W/m² | - |
| 1788484068 | 30° C | 76% | 1015.5 hPa | 0 mm | - | 0 W/m² | - |
| 1788483764 | 30° C | 76% | 1015.5 hPa | 0 mm | - | 0 W/m² | - |
| 1788483459 | 30° C | 75% | 1015.4 hPa | 0 mm | - | 0 W/m² | - |
| 1788483155 | 30.56° C | 75% | 1015.4 hPa | 0 mm | - | 0 W/m² | - |
| 1788482850 | 30.56° C | 74% | 1015.4 hPa | 0 mm | - | 0 W/m² | - |
| 1788482546 | 30.56° C | 74% | 1015.3 hPa | 0 mm | - | 0 W/m² | - |
| 1788482241 | 30.56° C | 73% | 1015.5 hPa | 0 mm | - | 0 W/m² | - |
| 1788481937 | 30.56° C | 72% | 1015.3 hPa | 0 mm | - | 0 W/m² | - |
| 1788481632 | 30.56° C | 73% | 1015.2 hPa | 0 mm | - | 0 W/m² | - |
| 1788481328 | 30.56° C | 72% | 1015.4 hPa | 0 mm | - | 1 W/m² | - |
| 1788481023 | 31.11° C | 71% | 1015.3 hPa | 0 mm | - | 3 W/m² | - |
| 1788480722 | 31.11° C | 71% | 1015.4 hPa | 0 mm | - | 6 W/m² | - |
| 1788480417 | 31.11° C | 70% | 1015.3 hPa | 0 mm | - | 10 W/m² | - |
| 1788480112 | 31.11° C | 69% | 1015.2 hPa | 0 mm | - | 13 W/m² | - |
| 1788479811 | 31.67° C | 68% | 1015.2 hPa | 0 mm | - | 18 W/m² | - |
| 1788479508 | 31.67° C | 67% | 1015.3 hPa | 0 mm | - | 26 W/m² | - |
| 1788479197 | 32.22° C | 66% | 1015.4 hPa | 0 mm | - | 33 W/m² | - |
* Rain latest hour (hover to see other rain measurements)
** Current wind speed in m/s (hover to see current wind gust speed)